When you browse on this site, cookies collect data to enhance your experience and personalize the content and advertising you see.
Visit our Privacy Policy to learn more. By continuing to use the site, you agree to this use of cookies and data.

Hourly Weather Megri

Today, 5 August, Wednesday

Time Temperature Precipitation Wind Pressure Humidity
00:00 +13°C° 0 mm 4 mps 620 mmHg 80%
01:00 +13°C° 0 mm 4 mps 620 mmHg 80%
02:00 +13°C° 0 mm 4 mps 619 mmHg 80%
03:00 +12°C° 0 mm 3 mps 619 mmHg 80%
04:00 +12°C° 0 mm 3 mps 619 mmHg 80%
05:00 +12°C° 0 mm 3 mps 619 mmHg 79%
06:00 +12°C° 0 mm 3 mps 619 mmHg 78%
07:00 +14°C° 0 mm 3 mps 620 mmHg 68%
08:00 +16°C° 0 mm 3 mps 620 mmHg 58%
09:00 +18°C° 0 mm 3 mps 620 mmHg 48%
10:00 +19°C° 0 mm 3 mps 621 mmHg 45%
11:00 +21°C° 0 mm 3 mps 621 mmHg 41%
12:00 +22°C° 0 mm 3 mps 621 mmHg 38%
13:00 +22°C° 0 mm 4 mps 621 mmHg 38%
14:00 +23°C° 0 mm 4 mps 621 mmHg 38%
15:00 +23°C° 0 mm 4 mps 621 mmHg 38%
16:00 +22°C° 0 mm 4 mps 620 mmHg 41%
17:00 +21°C° 0 mm 4 mps 620 mmHg 45%
18:00 +20°C° 0 mm 4 mps 620 mmHg 49%
19:00 +19°C° 0 mm 4 mps 620 mmHg 54%
20:00 +18°C° 0 mm 4 mps 620 mmHg 60%
21:00 +16°C° 0 mm 3 mps 620 mmHg 65%
22:00 +16°C° 0 mm 3 mps 620 mmHg 68%
23:00 +14°C° 0 mm 3 mps 620 mmHg 71%

Tomorrow, 6 August, Thursday

Time Temperature Precipitation Wind Pressure Humidity
00:00 +14°C° 0 mm 3 mps 620 mmHg 75%
01:00 +13°C° 0 mm 3 mps 620 mmHg 76%
02:00 +13°C° 0 mm 3 mps 619 mmHg 78%
03:00 +14°C° 0 mm 2 mps 619 mmHg 79%
04:00 +14°C° 0 mm 2 mps 620 mmHg 78%
05:00 +14°C° 0 mm 2 mps 620 mmHg 76%
06:00 +14°C° 0 mm 2 mps 620 mmHg 74%
07:00 +16°C° 0 mm 2 mps 621 mmHg 65%
08:00 +17°C° 0 mm 2 mps 622 mmHg 57%
09:00 +19°C° 0 mm 2 mps 623 mmHg 49%
10:00 +20°C° 0 mm 3 mps 623 mmHg 44%
11:00 +22°C° 0 mm 3 mps 623 mmHg 40%
12:00 +24°C° 0 mm 3 mps 624 mmHg 36%
13:00 +25°C° 0 mm 3 mps 624 mmHg 36%
14:00 +25°C° 0 mm 4 mps 624 mmHg 35%
15:00 +26°C° 0 mm 4 mps 624 mmHg 35%
16:00 +23°C° 0 mm 4 mps 623 mmHg 39%
17:00 +22°C° 0 mm 5 mps 623 mmHg 43%
18:00 +21°C° 0 mm 5 mps 623 mmHg 47%
19:00 +20°C° 0 mm 4 mps 623 mmHg 52%
20:00 +19°C° 0 mm 4 mps 623 mmHg 58%
21:00 +17°C° 0 mm 3 mps 623 mmHg 64%
22:00 +17°C° 0 mm 3 mps 623 mmHg 67%
23:00 +16°C° 0 mm 3 mps 623 mmHg 71%

Day after tomorrow, 7 August, Friday

Time Temperature Precipitation Wind Pressure Humidity
00:00 +16°C° 0 mm 3 mps 623 mmHg 75%
01:00 +14°C° 0 mm 3 mps 623 mmHg 77%
02:00 +14°C° 0 mm 3 mps 622 mmHg 80%
03:00 +14°C° 0 mm 3 mps 622 mmHg 83%
04:00 +14°C° 0 mm 3 mps 623 mmHg 82%
05:00 +14°C° 0 mm 3 mps 623 mmHg 82%
06:00 +14°C° 0 mm 3 mps 623 mmHg 81%
07:00 +17°C° 0 mm 2 mps 624 mmHg 72%
08:00 +18°C° 0 mm 2 mps 624 mmHg 63%
09:00 +20°C° 0 mm 2 mps 625 mmHg 53%
10:00 +21°C° 0 mm 2 mps 625 mmHg 48%
11:00 +24°C° 0 mm 3 mps 625 mmHg 44%
12:00 +25°C° 0 mm 3 mps 626 mmHg 39%
13:00 +25°C° 0 mm 3 mps 625 mmHg 37%
14:00 +26°C° 0 mm 4 mps 625 mmHg 36%
15:00 +27°C° 0 mm 4 mps 625 mmHg 34%
16:00 +26°C° 0 mm 4 mps 625 mmHg 36%
17:00 +25°C° 0 mm 5 mps 624 mmHg 39%
18:00 +23°C° 0 mm 5 mps 624 mmHg 41%
19:00 +21°C° 0 mm 4 mps 624 mmHg 45%
20:00 +20°C° 0 mm 4 mps 624 mmHg 49%
21:00 +19°C° 0 mm 3 mps 624 mmHg 53%
22:00 +18°C° 0 mm 3 mps 624 mmHg 55%
23:00 +18°C° 0 mm 3 mps 623 mmHg 56%

8 August, Saturday

Time Temperature Precipitation Wind Pressure Humidity
00:00 +17°C° 0 mm 3 mps 623 mmHg 58%
01:00 +17°C° 0 mm 3 mps 623 mmHg 59%
02:00 +16°C° 0 mm 2 mps 623 mmHg 61%
03:00 +16°C° 0 mm 2 mps 622 mmHg 63%
04:00 +16°C° 0 mm 2 mps 622 mmHg 62%
05:00 +16°C° 0 mm 2 mps 623 mmHg 62%
06:00 +16°C° 0 mm 2 mps 623 mmHg 62%
07:00 +18°C° 0 mm 2 mps 623 mmHg 54%
08:00 +20°C° 0 mm 2 mps 624 mmHg 47%
09:00 +21°C° 0 mm 2 mps 624 mmHg 40%
10:00 +24°C° 0 mm 2 mps 624 mmHg 36%
11:00 +25°C° 0 mm 3 mps 624 mmHg 32%
12:00 +26°C° 0 mm 3 mps 624 mmHg 28%
13:00 +27°C° 0 mm 3 mps 624 mmHg 27%
14:00 +28°C° 0 mm 3 mps 624 mmHg 25%
15:00 +28°C° 0 mm 3 mps 623 mmHg 24%
16:00 +27°C° 0 mm 4 mps 623 mmHg 26%
17:00 +27°C° 0 mm 4 mps 623 mmHg 29%
18:00 +26°C° 0 mm 4 mps 622 mmHg 31%
19:00 +23°C° 0 mm 4 mps 622 mmHg 35%
20:00 +22°C° 0 mm 3 mps 622 mmHg 39%
21:00 +20°C° 0 mm 3 mps 622 mmHg 44%
22:00 +20°C° 0 mm 3 mps 621 mmHg 46%
23:00 +19°C° 0 mm 3 mps 621 mmHg 48%

9 August, Sunday

Time Temperature Precipitation Wind Pressure Humidity
00:00 +19°C° 0 mm 3 mps 621 mmHg 50%
01:00 +18°C° 0 mm 2 mps 621 mmHg 52%
02:00 +18°C° 0 mm 2 mps 620 mmHg 54%
03:00 +17°C° 0 mm 2 mps 620 mmHg 56%
04:00 +17°C° 0 mm 2 mps 620 mmHg 55%
05:00 +18°C° 0 mm 2 mps 620 mmHg 54%
06:00 +18°C° 0 mm 2 mps 620 mmHg 53%
07:00 +20°C° 0 mm 2 mps 621 mmHg 46%
08:00 +23°C° 0 mm 2 mps 621 mmHg 39%
09:00 +24°C° 0 mm 2 mps 622 mmHg 32%
10:00 +26°C° 0 mm 2 mps 622 mmHg 29%
11:00 +27°C° 0 mm 2 mps 622 mmHg 26%
12:00 +29°C° 0 mm 2 mps 623 mmHg 23%
13:00 +29°C° 0 mm 2 mps 622 mmHg 22%
14:00 +30°C° 0 mm 2 mps 622 mmHg 21%
15:00 +31°C° 0 mm 2 mps 622 mmHg 20%
16:00 +30°C° 0 mm 3 mps 622 mmHg 22%
17:00 +29°C° 0 mm 3 mps 621 mmHg 24%
18:00 +28°C° 0 mm 3 mps 621 mmHg 27%
19:00 +26°C° 0 mm 3 mps 620 mmHg 31%
20:00 +25°C° 0 mm 3 mps 620 mmHg 36%
21:00 +22°C° 0 mm 3 mps 620 mmHg 40%
22:00 +21°C° 0 mm 3 mps 619 mmHg 42%
23:00 +21°C° 0 mm 3 mps 619 mmHg 43%

10 August, Monday

Time Temperature Precipitation Wind Pressure Humidity
00:00 +20°C° 0 mm 3 mps 619 mmHg 45%
01:00 +20°C° 0 mm 3 mps 619 mmHg 46%
02:00 +19°C° 0 mm 3 mps 619 mmHg 47%
03:00 +19°C° 0 mm 3 mps 618 mmHg 47%
04:00 +19°C° 0 mm 3 mps 619 mmHg 47%
05:00 +19°C° 0 mm 2 mps 619 mmHg 47%
06:00 +19°C° 0 mm 2 mps 619 mmHg 47%
07:00 +21°C° 0 mm 2 mps 620 mmHg 41%
08:00 +24°C° 0 mm 2 mps 620 mmHg 35%
09:00 +26°C° 0 mm 2 mps 621 mmHg 30%
10:00 +28°C° 0 mm 2 mps 621 mmHg 27%
11:00 +29°C° 0 mm 3 mps 621 mmHg 24%
12:00 +31°C° 0 mm 3 mps 622 mmHg 21%
13:00 +31°C° 0 mm 3 mps 621 mmHg 20%
14:00 +33°C° 0 mm 3 mps 621 mmHg 19%
15:00 +33°C° 0 mm 3 mps 621 mmHg 18%
16:00 +32°C° 0 mm 4 mps 620 mmHg 24%
17:00 +29°C° 0 mm 4 mps 620 mmHg 30%
18:00 +27°C° 0 mm 4 mps 619 mmHg 35%
19:00 +25°C° 0 mm 4 mps 619 mmHg 46%
20:00 +22°C° 0 mm 4 mps 619 mmHg 56%
21:00 +20°C° 0 mm 4 mps 619 mmHg 67%
22:00 +19°C° 0 mm 4 mps 619 mmHg 72%
23:00 +19°C° 0 mm 4 mps 619 mmHg 76%
Show more